Regional Weather Roundup
Issued by NWS

Home | Current Version | Previous Version | Text Only | Print | Product List | Glossary On
Versions: 1 2 3 4 5 6 7 8 9 10 11 12 13 14 15 16 17 18 19 20 21 22 23 24 25 26 27 28 29 30 31 32 33 34 35 36 37 38 39 40 41 42 43 44 45 46 47 48 49 50
000
ASUS43 KLSX 270510
RWRMO

WEATHER SUMMARY FOR MISSOURI
NATIONAL WEATHER SERVICE SPRINGFIELD MO
1200 AM CDT THU APR 27 2017

NOTE: "FAIR" INDICATES FEW OR NO CLOUDS BELOW 12,000 FEET WITH NO
       SIGNIFICANT WEATHER AND/OR OBSTRUCTIONS TO VISIBILITY.
       CURRENT SKY AND/OR WEATHER CONDITIONS ARE NOT AVAILABLE FOR
       CHILLICOTHE AND FARMINGTON.

MOZ001>031-035>038-043-044-053-054-270600-
...NORTHERN AND WESTERN MISSOURI...

CITY           SKY/WX    TMP DP  RH WIND       PRES   REMARKS
KANSAS CTY INT CLOUDY    43  35  73 NW7       29.66S
KANSAS C DTWN  CLOUDY    45  36  70 VRB7      29.66F
LEE`S SUMMIT   CLOUDY    44  37  76 NW12      29.66F
ST JOSEPH      CLOUDY    44  35  70 NW14      29.67F
CHILLICOTHE      N/A     44  37  76 VRB7      29.63F
KIRKSVILLE     LGT RAIN  43  43 100 NW12G22   29.57S

$$
MOZ066>068-077>081-088>096-101>105-270600-
...SOUTHWEST MISSOURI...

CITY           SKY/WX    TMP DP  RH WIND       PRES   REMARKS
SPRINGFIELD    CLOUDY    45  43  93 W9        29.67S
JOPLIN         CLEAR     45  43  93 W7        29.72R
BRANSON        CLOUDY    45  43  93 CALM      29.68F

$$
MOZ032>034-039>042-045>050-055>058-069>072-270600-
...CENTRAL MISSOURI...

CITY           SKY/WX    TMP DP  RH WIND       PRES   REMARKS
COLUMBIA       LGT RAIN  45  44  97 NW16G25   29.57R
JEFFERSON CITY LGT RAIN  48  44  86 NW13G21   29.59R
ROLLA          LGT RAIN  45  44  97 W14G23    29.56R FOG
SEDALIA        CLOUDY    45  44  97 NW12      29.64R
WHITEMAN AFB   CLOUDY    44  44 100 W12       29.63S
OSAGE BEACH    LGT RAIN  45  43  93 VRB7      29.62S

$$
MOZ051-052-059>065-270600-
...EAST CENTRAL MISSOURI...

CITY           SKY/WX    TMP DP  RH WIND       PRES   REMARKS
ST LOUIS INTL  RAIN      51  48  89 W21G28    29.47R FOG
SPIRIT OF STL  RAIN      50  48  93 W13G21    29.49S
ST CHARLES     HVY RAIN  51  50  96 W20       29.45R FOG

$$
MOZ072>076-082>087-097>100-106>115-270600-
...SOUTH CENTRAL AND SOUTHEAST MISSOURI...

CITY           SKY/WX    TMP DP  RH WIND       PRES   REMARKS
CAPE GIRARDEAU MOCLDY    60  56  86 SE6       29.46R
FARMINGTON     RAIN      48  46  93 W9G18     29.53R
POPLAR BLUFF   LGT RAIN  55  54  96 W12       29.54R
WEST PLAINS    LGT RAIN  46  44  93 W12G21    29.63R

$$




USA.gov is the U.S. government's official web portal to all federal, state and local government web resources and services.